Date,TemperatureHighF,TemperatureAvgF,TemperatureLowF,DewpointHighF,DewpointAvgF,DewpointLowF,HumidityHigh,HumidityAvg,HumidityLow,PressureMaxIn,PressureMinIn,WindSpeedMaxMPH,WindSpeedAvgMPH,GustSpeedMaxMPH,PrecipitationSumIn
2013-1-1,34,32,30,26,24,23,78,73,70,30.03,29.90,4,1,4,0.00
2013-1-2,31,30,29,25,24,22,79,76,72,30.01,29.88,6,3,7,0.00
2013-1-3,33,30,27,25,22,20,75,73,70,29.88,29.75,2,0,3,0.00
2013-1-4,34,30,28,25,23,21,81,75,69,29.84,29.77,5,0,5,0.00
2013-1-5,33,31,29,26,25,23,83,78,74,29.80,29.62,9,2,9,0.00
2013-1-6,35,32,28,29,26,23,85,80,76,29.62,29.48,9,2,10,0.00
2013-1-7,48,41,32,41,35,26,85,79,75,29.47,29.25,25,6,25,0.02
2013-1-8,52,45,42,47,38,35,84,77,70,29.52,29.28,0,0,0,0.00
2013-1-9,53,46,36,40,35,28,76,66,57,29.27,29.04,0,0,0,1.07
2013-1-10,42,37,33,28,25,18,73,62,53,29.41,29.25,0,0,0,0.00
2013-1-11,37,31,28,25,20,14,77,63,51,29.67,29.41,10,1,10,0.00
2013-1-12,33,27,22,22,19,15,82,71,60,29.77,29.65,9,1,9,0.00
2013-1-13,33,27,23,22,19,16,76,69,63,29.87,29.77,4,1,4,0.00
2013-1-14,38,31,27,26,22,19,78,71,61,29.87,29.71,13,1,16,0.00
2013-1-15,37,30,27,28,23,20,76,73,67,30.00,29.87,2,0,5,0.00
2013-1-16,32,29,26,25,23,19,78,76,73,30.02,29.95,4,0,4,0.00
2013-1-17,32,30,28,26,25,24,83,79,77,29.98,29.80,6,1,6,0.00
2013-1-18,32,29,27,26,25,23,88,82,79,29.81,29.69,7,2,7,0.00
2013-1-19,31,30,29,26,25,24,83,81,79,29.89,29.77,3,1,3,0.00
2013-1-20,32,30,29,26,25,24,81,79,77,29.96,29.85,2,0,3,0.00
2013-1-21,30,28,27,24,23,21,81,79,79,29.85,29.75,3,1,4,0.00
2013-1-22,27,26,25,22,20,20,81,78,74,29.76,29.61,4,1,4,0.00
2013-1-23,32,28,26,25,22,20,82,78,73,29.61,29.38,12,2,13,0.00
2013-1-24,34,30,25,28,25,19,84,80,76,29.67,29.52,5,1,9,0.01
2013-1-25,35,33,31,30,28,26,84,82,81,29.57,29.36,2,0,3,0.01
2013-1-26,38,35,34,35,31,29,89,86,83,29.41,29.33,3,0,5,0.01
2013-1-27,43,37,33,36,32,29,87,81,71,29.44,29.35,14,2,14,0.00
2013-1-28,41,39,35,34,32,30,84,78,72,29.38,29.30,0,0,0,0.00
2013-1-29,48,44,40,38,35,32,78,70,58,29.60,29.32,22,2,22,0.00
2013-1-30,50,46,42,41,38,36,78,73,67,29.67,29.55,18,2,19,0.00
2013-1-31,54,47,43,42,39,36,79,73,60,29.70,29.61,19,9,19,0.00
2013-2-1,54,45,39,41,36,31,77,69,56,29.84,29.63,14,2,15,0.00
2013-2-2,48,40,34,38,33,28,79,74,68,29.85,29.65,4,0,4,0.04
2013-2-3,40,36,30,36,32,25,87,83,77,29.66,29.54,3,1,4,0.01
2013-2-4,48,41,36,41,36,32,87,81,74,29.55,29.34,9,1,9,0.00
2013-2-5,52,43,36,41,36,32,85,75,61,29.35,29.25,22,8,22,0.00
2013-2-6,52,45,40,36,34,32,77,65,50,29.47,29.28,0,0,0,0.00
2013-2-7,47,42,36,35,32,27,78,67,59,29.47,29.26,7,0,7,0.00
2013-2-8,49,39,34,31,27,24,71,62,49,29.57,29.47,7,1,7,0.00
2013-2-9,48,40,33,31,27,23,71,62,51,29.60,29.48,13,2,13,0.00
2013-2-10,50,40,34,34,29,25,73,65,51,29.68,29.60,5,1,5,0.00
2013-2-11,49,40,34,37,31,26,80,69,61,29.64,29.56,13,2,13,0.00
2013-2-12,50,43,38,39,35,31,79,74,65,29.71,29.62,24,9,24,0.00
2013-2-13,53,47,44,40,36,28,76,66,53,29.79,29.60,29,10,29,0.00
2013-2-14,53,46,41,38,34,29,72,62,55,29.91,29.79,17,4,17,0.00
2013-2-15,54,44,34,40,34,28,78,68,56,29.92,29.64,5,1,5,0.00
2013-2-16,57,44,37,41,34,30,80,68,40,29.64,29.39,22,8,23,0.00
2013-2-17,52,42,37,32,28,25,73,58,42,29.55,29.47,16,8,18,0.00
2013-2-18,45,39,33,31,28,24,71,63,57,29.49,29.18,6,1,6,0.00
2013-2-19,49,41,35,32,29,26,72,63,49,29.33,29.14,10,2,10,0.00
2013-2-20,49,41,34,33,29,24,70,62,50,29.42,29.33,13,2,13,0.00
2013-2-21,48,41,35,35,31,26,83,68,54,29.44,29.39,27,14,31,0.00
2013-2-22,48,43,38,39,34,27,77,71,63,29.42,29.09,34,16,34,0.04
2013-2-23,52,42,35,33,27,22,76,57,36,29.68,29.22,25,11,26,0.00
2013-2-24,46,39,33,32,28,24,77,66,56,29.72,29.61,20,11,22,0.00
2013-2-25,52,43,35,35,30,25,80,63,37,29.62,29.34,33,19,35,0.06
2013-2-26,50,41,34,32,28,24,75,60,46,29.73,29.60,15,6,16,0.00
2013-2-27,55,46,38,37,32,25,68,57,46,29.69,29.59,18,5,18,0.00
2013-2-28,52,49,46,45,41,36,82,74,63,29.75,29.63,22,3,24,0.03
2013-3-1,63,55,50,47,44,41,82,67,49,29.77,29.66,35,12,35,0.00
2013-3-2,57,52,48,45,42,38,78,68,54,29.66,29.38,20,4,21,0.00
2013-3-3,64,45,37,38,22,16,69,41,19,29.62,29.43,16,3,18,0.00
2013-3-4,52,42,34,29,22,18,53,46,36,29.67,29.42,5,1,7,0.00
2013-3-5,46,41,36,34,27,20,79,59,47,29.42,29.19,10,2,12,0.03
2013-3-6,47,40,38,40,35,33,85,81,73,29.29,29.00,29,5,32,0.27
2013-3-7,56,46,38,35,31,25,80,59,37,29.45,29.29,0,0,0,0.00
2013-3-8,56,45,36,38,31,25,71,59,46,29.54,29.42,7,1,8,0.00
2013-3-9,60,48,37,38,32,28,72,55,37,29.78,29.55,10,0,10,0.00
2013-3-10,63,48,41,46,34,28,65,57,50,29.79,29.65,15,3,17,0.00
2013-3-11,65,52,45,39,36,32,70,56,39,29.72,29.59,12,3,16,0.00
2013-3-12,69,54,48,47,42,37,80,64,38,29.59,29.45,30,11,30,0.00
2013-3-13,71,57,49,47,42,39,72,57,40,29.57,29.48,16,0,19,0.13
2013-3-14,73,58,50,49,44,32,72,60,38,29.49,29.38,15,1,15,0.00
2013-3-15,70,57,48,47,42,37,80,58,39,29.57,29.47,20,7,20,0.00
2013-3-16,58,49,39,42,37,29,78,64,44,29.47,29.19,16,3,19,0.01
2013-3-17,52,45,37,31,28,24,72,52,38,29.51,29.28,28,12,29,0.00
2013-3-18,65,44,35,33,28,23,76,56,25,29.61,29.44,36,7,36,0.00
2013-3-19,52,43,34,33,25,21,74,49,38,29.62,29.16,5,0,5,0.01
2013-3-20,58,45,38,46,35,29,84,70,35,29.33,28.93,35,3,35,0.15
2013-3-21,52,41,34,33,28,24,76,61,41,29.51,29.33,0,0,0,0.00
2013-3-22,64,41,33,33,23,20,74,50,30,29.69,29.49,0,0,0,0.00
2013-3-23,76,46,34,34,22,17,55,41,18,29.76,29.65,0,0,0,0.00
2013-3-24,69,44,34,31,22,17,58,43,22,29.72,29.55,0,0,0,0.00
2013-3-25,56,46,37,30,25,20,51,44,36,29.56,29.36,0,0,0,0.00
2013-3-26,63,52,45,36,31,26,51,44,36,29.41,29.33,0,0,0,0.00
2013-3-27,66,55,49,46,40,34,65,56,46,29.38,29.31,0,0,0,0.01
2013-3-28,66,57,49,46,41,38,68,56,43,29.48,29.38,0,0,0,0.00
2013-3-29,70,59,51,47,42,38,65,53,38,29.60,29.48,0,0,0,0.00
2013-3-30,72,59,49,44,39,35,65,50,33,29.66,29.48,0,0,0,0.00
2013-3-31,74,60,48,45,38,33,59,46,34,29.48,29.29,0,0,0,0.00
2013-4-1,77,61,50,47,41,34,64,48,30,29.40,29.30,0,0,0,0.00
2013-4-2,72,60,51,48,44,41,76,58,40,29.49,29.40,0,0,0,0.00
2013-4-3,69,59,50,44,41,37,69,53,35,29.51,29.34,0,0,0,0.00
2013-4-4,63,56,53,51,44,39,81,64,49,29.34,29.11,0,0,0,0.25
2013-4-5,66,54,50,48,43,41,78,67,41,29.29,29.20,0,0,0,0.01
2013-4-6,72,54,48,43,39,34,77,60,32,29.33,29.20,0,0,0,0.01
2013-4-7,58,50,43,43,38,34,86,65,44,29.22,28.94,0,0,0,0.09
2013-4-8,58,51,42,39,35,32,75,56,48,29.59,29.18,1,0,2,0.00
2013-4-9,65,54,43,42,37,33,67,54,37,29.71,29.55,9,2,12,0.00
2013-4-10,84,58,49,47,36,29,62,46,22,29.55,29.30,34,12,41,0.01
2013-4-11,62,51,41,39,34,28,72,54,39,29.59,29.47,11,0,11,0.00
2013-4-12,59,49,42,40,34,26,74,56,40,29.51,29.05,22,6,24,0.10
2013-4-13,57,48,40,38,27,22,73,47,27,29.32,29.05,0,0,0,0.00
2013-4-14,76,48,37,48,32,27,76,55,25,29.34,29.23,10,1,10,0.00
2013-4-15,58,48,41,37,32,28,65,54,39,29.47,29.27,9,2,10,0.00
2013-4-16,56,45,36,28,22,18,56,42,28,29.73,29.47,11,3,11,0.00
2013-4-17,64,48,36,30,24,18,49,39,25,29.84,29.71,10,2,10,0.00
2013-4-18,66,55,46,43,36,24,76,50,34,29.75,29.58,16,6,18,0.00
2013-4-19,53,50,49,46,44,43,84,80,75,29.58,29.41,20,2,20,0.04
2013-4-20,66,60,51,43,40,35,57,48,41,29.55,29.46,26,6,26,2.40
2013-4-21,67,53,45,39,36,30,69,53,28,29.65,29.43,13,6,16,0.00
2013-4-22,68,50,38,32,27,18,70,43,21,29.86,29.65,8,2,11,0.00
2013-4-23,67,56,45,31,23,17,35,28,22,29.77,29.58,11,3,13,0.00
2013-4-24,73,58,44,37,28,21,43,33,19,29.69,29.35,10,2,12,0.00
2013-4-25,79,65,54,43,34,26,39,33,26,29.44,29.33,13,3,14,0.00
2013-4-26,84,69,58,46,39,31,51,36,18,29.56,29.44,14,4,16,0.00
2013-4-27,75,65,59,40,36,29,48,35,19,29.53,29.41,34,11,34,0.00
2013-4-28,71,60,52,42,38,34,57,45,30,29.52,29.31,28,11,29,0.00
2013-4-29,63,55,44,41,31,19,66,41,21,29.43,29.22,26,5,29,0.05
2013-4-30,62,50,40,28,23,18,52,36,24,29.76,29.43,0,0,0,0.00
2013-5-1,74,54,42,36,27,20,48,36,24,29.95,29.76,0,0,0,0.00
2013-5-2,74,59,48,38,31,24,44,34,25,29.95,29.62,0,0,0,0.00
2013-5-3,79,66,57,45,38,30,50,37,26,29.69,29.52,10,1,11,0.00
2013-5-4,79,67,55,44,38,34,55,36,23,29.59,29.37,10,4,11,0.00
2013-5-5,86,66,53,48,39,33,48,38,25,29.38,29.17,8,2,9,0.00
2013-5-6,91,72,61,46,40,34,41,32,19,29.26,29.10,8,2,8,0.00
2013-5-7,92,76,64,51,42,32,43,31,22,29.23,29.13,8,2,9,0.00
2013-5-8,93,75,61,55,48,33,63,41,19,29.37,29.22,11,3,13,0.00
2013-5-9,96,77,64,56,49,40,56,39,25,29.46,29.36,10,2,10,0.00
2013-5-10,95,80,68,54,44,34,48,30,15,29.51,29.40,9,2,10,0.00
2013-5-11,93,81,70,54,49,36,48,34,22,29.49,29.34,13,4,13,0.04
2013-5-12,87,77,68,58,50,43,47,39,26,29.41,29.35,17,6,22,0.00
2013-5-13,71,64,55,55,47,36,76,55,34,29.52,29.35,27,10,32,0.08
2013-5-14,81,62,52,40,35,27,60,38,22,29.57,29.42,13,2,13,0.00
2013-5-15,72,62,55,45,38,28,63,41,28,29.45,29.33,16,4,18,0.00
2013-5-16,77,64,54,48,44,41,68,49,34,29.35,29.20,12,4,14,0.00
2013-5-17,72,62,54,49,44,38,68,52,36,29.36,29.24,20,10,21,0.00
2013-5-18,68,59,50,44,42,37,72,54,38,29.54,29.37,24,10,27,0.00
2013-5-19,77,63,53,47,42,37,64,47,32,29.66,29.54,14,5,14,0.00
2013-5-20,85,68,55,51,44,37,58,44,29,29.65,29.20,9,1,9,0.00
2013-5-21,75,60,45,50,43,38,78,55,31,29.20,29.07,32,10,34,0.09
2013-5-22,56,47,40,43,39,35,84,72,57,29.37,29.19,33,14,37,0.07
2013-5-23,67,55,45,45,40,36,71,57,36,29.41,29.33,15,2,18,0.00
2013-5-24,59,51,46,45,42,38,82,70,53,29.39,29.33,22,8,22,0.14
2013-5-26,75,67,57,51,47,43,60,50,41,29.35,29.31,0,0,0,0.00
2013-5-27,65,59,53,50,47,43,72,63,51,29.34,29.17,0,0,0,0.02
2013-5-28,81,63,53,50,45,38,80,54,29,29.23,29.14,14,1,15,0.00
2013-5-29,77,61,54,53,45,39,71,57,36,29.32,29.06,16,2,16,0.21
2013-5-30,82,61,52,46,42,39,68,50,26,29.53,29.32,17,2,17,0.00
2013-5-31,82,64,52,47,41,35,66,46,28,29.66,29.54,0,0,0,0.00
2013-6-1,87,70,59,48,41,33,50,36,25,29.58,29.33,0,0,0,0.00
2013-6-2,77,68,60,49,43,40,52,42,29,29.36,29.28,0,0,0,0.00
2013-6-3,85,69,59,47,43,39,50,39,24,29.43,29.33,0,0,0,0.00
2013-6-4,89,72,61,52,47,40,55,41,28,29.51,29.39,0,0,0,0.00
2013-6-5,93,78,66,53,48,43,50,36,24,29.42,29.28,0,0,0,0.00
2013-6-6,93,80,71,57,51,46,47,37,27,29.37,29.24,0,0,0,0.00
2013-6-7,89,78,69,54,49,43,51,37,26,29.39,29.26,0,0,0,0.00
2013-6-8,98,75,62,50,44,38,46,35,17,29.45,29.28,0,0,0,0.00
2013-6-9,95,74,63,50,42,29,51,35,16,29.36,29.20,0,0,0,0.00
2013-6-10,96,71,60,54,43,37,50,38,21,29.29,29.12,0,0,0,0.00
2013-6-11,80,64,54,45,41,36,66,46,24,29.43,29.13,0,0,0,0.00
2013-6-12,83,64,51,46,40,37,64,44,25,29.47,29.36,0,0,0,0.00
2013-6-13,80,62,50,44,41,37,71,48,24,29.51,29.43,0,0,0,0.00
2013-6-14,91,66,52,46,42,37,71,46,19,29.56,29.38,0,0,0,0.00
2013-6-15,89,71,59,48,40,14,47,33,1,29.39,29.25,0,0,0,0.00
2013-6-16,140,109,77,62,40,16,1,1,1,29.31,29.25,0,0,0,0.00
2013-6-17,112,-26,-39,43,-45,-65,58,35,1,29.38,29.31,0,0,0,0.00
2013-6-18,67,63,60,54,51,49,77,65,56,29.26,29.24,0,0,0,0.00
2013-6-19,72,64,58,52,47,42,75,55,37,29.31,29.19,0,0,0,0.00
2013-6-20,68,61,54,50,46,42,75,60,40,29.47,29.29,0,0,0,0.12
2013-6-21,74,62,55,54,50,47,81,66,48,29.51,29.44,0,0,0,0.16
2013-6-22,96,70,59,56,49,44,68,50,23,29.47,29.26,0,0,0,0.00
2013-6-23,78,69,63,57,51,44,77,54,38,29.26,29.03,0,0,0,0.10
2013-6-24,88,66,62,58,54,51,81,67,36,29.10,29.01,0,0,0,0.04
2013-6-25,77,66,58,58,54,50,80,65,47,29.27,29.10,0,0,0,0.28
2013-6-26,83,68,61,62,55,49,75,63,48,29.45,29.26,0,0,0,0.02
2013-6-27,91,74,65,64,58,53,74,58,39,29.55,29.44,0,0,0,0.00
2013-6-28,106,81,70,69,60,55,62,50,29,29.58,29.37,0,0,0,0.00
2013-6-29,104,83,74,67,62,58,66,51,27,29.42,29.32,0,0,0,0.24
2013-6-30,107,84,73,67,63,58,68,52,27,29.41,29.26,0,0,0,0.00
2013-7-1,108,89,77,66,60,55,50,40,25,29.33,29.20,0,0,0,0.00
2013-7-2,112,92,80,67,61,50,56,38,19,29.36,29.21,0,0,0,0.00
2013-7-3,107,86,76,62,54,42,47,36,17,29.40,29.23,0,0,6,0.00
2013-7-4,92,79,67,54,48,42,51,36,19,29.32,29.18,15,3,16,0.00
2013-7-5,89,72,58,52,48,41,73,46,26,29.28,29.17,15,7,18,0.00
2013-7-6,101,77,60,54,47,37,67,39,13,29.29,29.16,9,2,10,0.00
2013-7-7,104,82,66,57,50,42,52,35,19,29.25,29.12,8,2,10,0.00
2013-7-8,102,82,66,59,53,46,56,39,23,29.38,29.20,5,1,7,0.00
2013-7-9,105,84,65,59,50,36,61,34,14,29.46,29.29,5,1,6,0.00
2013-7-10,100,84,71,57,48,38,53,32,15,29.31,29.12,23,6,23,0.00
2013-7-11,92,76,61,52,43,26,59,34,8,29.29,29.18,10,3,13,0.00
2013-7-12,90,71,58,48,39,33,44,32,16,29.37,29.23,11,2,12,0.00
2013-7-13,92,72,57,47,40,32,47,32,18,29.52,29.38,8,2,10,0.00
2013-7-14,106,79,57,50,41,30,50,28,11,29.47,29.25,6,1,10,0.00
2013-7-15,96,78,64,50,44,37,43,31,18,29.38,29.25,7,2,7,0.00
2013-7-16,96,80,65,53,47,40,47,33,19,29.33,29.14,10,4,12,0.00
2013-7-17,102,84,70,57,48,34,55,32,12,29.42,29.18,16,6,19,0.00
2013-7-18,108,83,64,59,49,38,49,32,20,29.50,29.35,15,2,15,0.00
2013-7-19,110,87,68,57,50,42,45,30,16,29.42,29.25,5,1,6,0.00
2013-7-20,110,86,67,56,46,27,40,27,7,29.32,29.15,7,1,7,0.00
2013-7-21,104,84,68,55,48,27,53,32,15,29.22,29.10,15,4,15,0.01
2013-7-22,104,84,69,54,49,38,56,33,11,29.28,29.15,13,5,16,0.00
2013-7-23,109,86,66,57,50,39,52,31,17,29.37,29.23,8,1,8,0.00
2013-7-24,113,86,69,61,52,38,53,33,17,29.34,29.23,9,2,12,0.00
2013-7-25,112,87,68,56,49,39,53,30,11,29.38,29.28,9,2,10,0.00
2013-7-26,106,85,67,56,46,35,46,28,11,29.42,29.28,9,2,9,0.00
2013-7-27,96,80,64,54,45,34,46,30,15,29.41,29.21,15,3,15,0.00
2013-7-28,94,75,62,50,46,42,61,39,18,29.27,29.16,15,6,15,0.00
2013-7-29,101,77,61,57,49,41,58,39,23,29.29,29.20,11,2,11,0.00
2013-7-30,103,81,66,57,50,42,57,36,19,29.42,29.26,12,2,12,0.00
2013-7-31,96,78,66,58,50,38,51,37,26,29.42,29.28,16,1,16,0.00
2013-8-1,82,72,67,57,53,48,69,51,41,29.32,29.21,22,6,22,0.02
2013-8-2,80,67,58,57,54,50,78,63,42,29.44,29.31,19,5,19,0.01
2013-8-3,94,72,60,62,57,53,84,62,33,29.48,29.37,5,1,7,0.07
2013-8-4,102,79,63,62,56,51,72,49,25,29.42,29.26,5,1,5,0.00
2013-8-5,105,83,67,63,55,48,58,41,24,29.35,29.21,8,1,8,0.00
2013-8-6,105,85,69,58,46,32,49,30,10,29.33,29.19,11,2,13,0.00
2013-8-7,106,87,68,56,49,41,44,28,18,29.30,29.20,9,2,10,0.00
2013-8-8,99,82,69,55,50,44,54,35,23,29.31,29.19,12,2,13,0.00
2013-8-9,98,82,71,61,55,46,57,40,26,29.27,29.10,44,4,45,0.00
2013-8-10,98,80,68,60,56,49,67,45,27,29.31,29.19,23,5,23,0.00
2013-8-11,92,78,67,59,54,45,68,46,22,29.37,29.25,16,6,17,0.00
2013-8-12,103,80,64,58,52,47,60,39,23,29.37,29.26,10,2,13,0.00
2013-8-13,103,81,65,57,50,42,60,37,21,29.42,29.28,12,3,13,0.00
2013-8-14,103,83,64,59,50,44,56,34,22,29.30,29.17,10,2,11,0.00
2013-8-15,101,83,70,59,52,44,50,35,20,29.31,29.20,13,3,13,0.00
2013-8-16,93,79,69,61,57,53,63,47,29,29.36,29.29,13,2,16,0.00
2013-8-17,90,78,68,59,56,50,70,48,27,29.38,29.28,16,6,16,0.00
2013-8-18,95,78,62,56,51,43,65,42,20,29.44,29.29,14,4,14,0.00
2013-8-19,98,79,63,58,52,47,67,42,23,29.41,29.27,14,4,15,0.00
2013-8-20,96,76,61,57,50,43,60,41,24,29.45,29.33,6,1,6,0.00
2013-8-21,93,76,62,54,46,36,51,36,16,29.43,29.28,5,1,5,0.00
2013-8-22,94,79,65,52,46,41,46,33,22,29.30,29.16,8,2,8,0.00
2013-8-23,88,77,67,59,52,41,68,44,23,29.22,29.12,20,10,20,0.00
2013-8-24,96,75,63,57,52,44,69,47,24,29.22,29.11,19,5,22,0.00
2013-8-25,87,70,60,58,52,48,85,55,31,29.28,29.15,25,5,27,0.18
2013-8-26,86,71,60,61,55,51,83,59,32,29.33,29.25,13,4,14,0.01
2013-8-27,92,76,63,58,52,47,62,46,29,29.34,29.13,6,1,6,0.00
2013-8-28,98,79,62,62,55,49,68,45,28,29.24,29.13,7,1,8,0.00
2013-8-29,90,77,66,61,55,52,65,48,31,29.41,29.21,20,4,20,0.00
2013-8-30,90,76,65,57,53,47,71,47,26,29.49,29.38,17,6,17,0.00
2013-8-31,94,76,60,57,50,47,64,43,25,29.43,29.22,6,2,6,0.00
2013-9-1,103,80,65,59,51,46,52,38,23,29.24,29.10,5,1,5,0.00
2013-9-2,92,78,69,62,54,49,71,44,30,29.23,29.12,13,3,14,0.00
2013-9-3,97,79,66,60,56,50,66,47,24,29.30,29.21,11,2,12,0.00
2013-9-4,98,79,65,62,57,51,63,47,28,29.35,29.24,6,1,6,0.04
2013-9-5,85,72,62,63,59,54,81,63,44,29.35,29.17,24,3,24,0.16
2013-9-7,64,64,62,54,53,53,71,69,68,29.43,29.42,1,0,1,0.00
2013-9-8,88,71,58,58,54,49,81,57,32,29.46,29.33,9,2,11,0.00
2013-9-9,94,77,63,60,53,48,60,45,30,29.37,29.27,7,1,7,0.00
2013-9-10,96,78,63,60,54,49,63,45,29,29.38,29.27,5,1,5,0.00
2013-9-11,100,82,68,60,53,48,51,39,25,29.40,29.28,7,2,8,0.00
2013-9-12,92,79,67,60,54,49,55,42,31,29.35,29.20,7,1,7,0.00
2013-9-13,101,84,70,62,56,52,60,40,26,29.23,29.08,12,2,12,0.00
2013-9-14,96,81,66,62,56,52,65,44,29,29.22,29.09,7,2,7,0.00
2013-9-15,96,77,63,62,55,47,86,50,29,29.12,28.91,45,2,45,0.20
2013-9-16,81,67,59,56,53,49,82,63,35,29.26,29.12,12,1,12,0.00
2013-9-17,72,62,56,53,49,41,76,62,45,29.23,29.11,13,4,15,0.00
2013-9-18,74,62,53,46,43,38,70,51,34,29.43,29.22,17,4,17,0.00
2013-9-19,82,63,47,49,42,37,76,49,28,29.46,29.22,0,0,0,0.00
2013-9-20,79,63,51,49,42,37,61,47,28,29.22,28.96,0,0,0,0.00
2013-9-21,75,68,58,53,47,44,66,49,35,29.07,29.00,0,0,0,0.00
2013-9-22,70,58,53,52,48,44,86,70,43,29.15,29.04,0,0,0,0.00
2013-9-23,67,60,54,48,46,44,78,62,45,29.32,29.15,0,0,0,0.00
2013-9-24,64,57,51,49,46,41,82,68,49,29.30,29.15,0,0,0,0.00
2013-9-25,72,57,48,46,40,35,78,57,30,29.27,29.15,9,2,11,0.00
2013-9-26,68,58,51,46,41,37,75,55,37,29.43,29.28,10,4,15,0.00
2013-9-27,61,54,49,48,43,38,80,69,47,29.45,29.28,20,9,21,0.00
2013-9-28,70,62,52,55,50,44,85,67,49,29.28,28.84,25,8,27,0.00
2013-9-29,62,57,50,49,44,42,83,64,51,29.07,28.74,31,13,34,0.00
2013-9-30,63,56,50,50,41,37,80,58,46,29.33,28.81,36,6,36,0.00
2013-10-1,58,51,47,43,40,37,75,66,50,29.52,29.33,0,0,0,0.00
2013-10-2,56,50,45,41,39,36,80,66,55,29.53,29.41,0,0,0,0.00
2013-10-3,68,54,42,42,39,34,81,58,36,29.76,29.46,0,0,0,0.00
2013-10-4,70,54,41,44,37,30,75,56,37,29.88,29.75,0,0,0,0.00
2013-10-5,74,56,41,46,38,30,74,52,35,29.78,29.59,3,0,4,0.00
2013-10-6,75,58,44,46,39,34,68,50,33,29.59,29.32,13,1,14,0.00
2013-10-7,66,58,50,47,40,37,71,52,38,29.36,29.26,32,14,32,0.00
2013-10-8,56,49,43,44,40,37,83,72,59,29.37,29.25,27,10,27,0.00
2013-10-9,62,49,39,46,41,35,90,73,52,29.48,29.29,10,2,13,0.00
2013-10-10,66,55,48,43,39,36,72,56,39,29.37,29.23,14,5,16,0.00
2013-10-11,66,55,48,44,40,36,75,58,38,29.49,29.37,11,2,11,0.00
2013-10-12,54,50,44,45,42,37,80,73,64,29.53,29.38,9,3,10,0.00
2013-10-13,69,53,44,42,39,33,83,60,35,29.67,29.52,4,1,5,0.00
2013-10-14,69,52,40,43,36,32,78,56,37,29.78,29.66,9,1,9,0.00
2013-10-15,67,51,39,42,34,28,69,54,34,29.77,29.52,4,0,4,0.00
2013-10-16,71,53,41,42,35,30,68,51,33,29.57,29.50,4,1,5,0.00
2013-10-17,72,54,42,43,36,32,68,52,32,29.65,29.54,4,0,4,0.00
2013-10-18,72,53,40,46,38,31,74,56,38,29.67,29.54,4,0,4,0.00
2013-10-19,70,53,41,46,38,32,73,59,40,29.54,29.46,3,0,4,0.00
2013-10-20,77,57,44,50,40,34,73,54,33,29.55,29.46,8,1,8,0.00
2013-10-21,76,58,46,50,41,35,70,55,39,29.58,29.49,4,1,5,0.00
2013-10-22,72,53,47,49,41,38,72,65,42,29.56,29.45,4,0,4,0.00
2013-10-23,73,56,43,50,43,37,79,63,44,29.51,29.44,3,1,3,0.00
2013-10-24,70,54,44,50,43,37,81,67,48,29.51,29.44,4,0,4,0.00
2013-10-25,70,54,42,50,43,37,85,69,48,29.62,29.48,4,0,4,0.00
2013-10-26,70,53,42,50,43,38,86,70,46,29.68,29.44,5,1,5,0.00
2013-10-27,55,49,45,45,43,35,88,78,61,29.44,29.14,19,5,20,0.02
2013-10-28,55,46,40,35,27,21,66,49,33,29.30,29.21,12,6,13,0.00
2013-10-29,61,43,33,30,22,19,56,45,30,29.43,29.31,9,2,9,0.00
2013-10-30,59,48,33,35,29,21,65,49,38,29.46,29.38,15,3,15,0.00
2013-10-31,68,56,48,47,40,30,68,56,39,29.57,29.41,17,9,23,0.00
2013-11-1,68,55,47,44,40,34,78,58,36,29.63,29.30,16,5,16,0.00
2013-11-2,57,50,40,45,38,32,85,64,46,29.30,29.00,36,3,36,0.09
2013-11-3,54,44,40,35,32,28,79,64,38,29.41,29.25,0,0,0,0.00
2013-11-4,59,44,36,33,27,21,67,52,30,29.56,29.41,0,0,0,0.00
2013-11-5,44,40,36,36,32,27,85,75,56,29.59,29.48,0,0,0,0.11
2013-11-6,45,40,35,38,35,30,88,82,74,29.75,29.59,0,0,0,0.07
2013-11-7,50,44,39,42,38,36,90,81,62,29.60,29.19,0,0,0,0.09
2013-11-8,54,48,44,41,39,36,77,70,60,29.52,29.33,0,0,0,0.00
2013-11-9,49,43,39,39,36,34,84,76,68,29.56,29.49,6,1,6,0.00
2013-11-10,56,46,41,43,38,36,81,74,58,29.62,29.49,5,1,5,0.00
2013-11-11,57,46,40,43,38,35,85,76,57,29.72,29.60,5,1,6,0.00
2013-11-12,57,47,40,44,40,36,87,77,63,29.73,29.60,8,2,9,0.00
2013-11-13,61,49,42,46,41,36,86,74,57,29.77,29.62,16,4,16,0.00
2013-11-14,51,43,36,42,37,31,86,77,68,29.62,29.33,11,2,13,0.00
2013-11-15,48,43,37,36,34,32,84,72,59,29.35,28.73,32,10,32,0.01
2013-11-16,54,46,41,37,31,24,77,56,33,29.10,28.66,20,3,20,0.00
2013-11-17,57,50,42,39,37,34,81,60,49,29.31,29.11,0,0,0,0.00
2013-11-18,54,50,47,42,38,35,79,63,51,29.29,29.05,0,0,0,0.13
2013-11-19,57,51,40,47,39,27,75,65,56,29.26,29.01,0,0,0,0.00
2013-11-20,43,34,26,28,12,3,59,40,26,29.84,29.26,0,0,0,0.00
2013-11-21,45,28,20,18,10,4,61,47,32,30.07,29.84,0,0,0,0.00
2013-11-22,42,28,17,20,14,8,75,58,38,30.15,30.01,2,0,2,0.00
2013-11-23,41,28,21,21,16,11,72,60,42,30.02,29.75,3,0,5,0.00
2013-11-24,43,29,19,25,19,13,82,67,46,29.78,29.70,3,0,3,0.00
2013-11-25,46,32,24,28,21,17,75,63,45,29.85,29.77,3,0,3,0.00
2013-11-26,41,31,23,27,22,17,80,70,55,29.77,29.60,2,0,2,0.00
2013-11-27,39,31,26,29,24,20,83,74,63,29.60,29.51,3,0,3,0.00
2013-11-28,40,29,24,30,24,20,88,80,65,29.62,29.54,2,0,3,0.00
2013-11-29,27,24,19,25,21,16,91,89,86,29.70,29.61,2,0,3,0.00
2013-11-30,36,30,26,32,27,24,91,88,81,29.72,29.55,4,0,4,0.01
2013-12-1,56,47,31,46,40,28,91,78,63,29.55,29.05,16,1,16,0.11
2013-12-2,52,42,32,41,27,15,78,55,38,29.38,29.01,0,0,0,0.00
2013-12-3,36,28,18,24,14,7,87,57,38,29.64,29.38,0,0,0,0.00
2013-12-4,38,19,15,14,8,4,74,61,36,29.72,29.64,0,0,0,0.00
2013-12-5,27,17,10,15,9,4,83,68,57,29.72,29.65,0,0,0,0.00
2013-12-6,23,18,11,11,6,-2,78,61,44,29.66,29.51,0,0,0,0.00
2013-12-7,28,15,9,0,-4,-7,55,44,28,29.78,29.56,0,0,0,0.00
2013-12-8,23,13,9,4,-2,-6,61,51,40,29.93,29.77,0,0,0,0.00
2013-12-9,30,18,10,10,4,0,67,55,42,29.92,29.75,0,0,0,0.00
2013-12-10,28,20,13,12,7,4,68,59,46,29.84,29.75,0,0,0,0.00
2013-12-11,35,23,14,16,11,5,70,59,43,29.84,29.70,0,0,0,0.00
2013-12-12,32,26,18,21,16,11,78,68,58,29.70,29.51,0,0,0,0.00
2013-12-13,43,30,22,27,20,16,79,69,49,29.81,29.56,0,0,0,0.00
2013-12-14,48,34,26,35,26,18,81,72,61,29.82,29.65,0,0,0,0.00
2013-12-15,56,47,35,42,36,28,77,67,55,29.71,29.58,0,0,0,0.00
2013-12-16,56,45,37,38,35,30,79,68,48,29.78,29.67,0,0,0,0.00
2013-12-17,46,35,28,35,29,24,89,79,56,29.67,29.37,0,0,0,0.00
2013-12-18,48,44,34,36,34,14,73,65,44,29.46,29.27,0,0,0,0.00
2013-12-19,40,32,25,14,11,8,49,42,30,29.66,29.47,0,0,0,0.00
2013-12-20,41,34,25,34,27,12,87,76,46,29.48,28.98,0,0,0,0.04
2013-12-21,42,31,25,30,24,22,87,78,59,29.51,29.19,0,0,0,0.00
2013-12-22,34,30,28,28,26,24,87,83,75,29.68,29.50,0,0,0,0.01
2013-12-23,57,45,31,44,35,26,90,68,44,29.80,29.42,0,0,0,0.01
2013-12-24,48,40,31,32,28,23,79,62,50,29.91,29.80,0,0,0,0.00
2013-12-25,39,31,26,29,24,21,86,78,63,29.90,29.79,0,0,0,0.00
2013-12-26,39,29,22,29,24,18,88,81,67,29.80,29.68,0,0,0,0.00
2013-12-27,31,25,20,27,22,17,90,88,83,29.68,29.49,0,0,0,0.01
2013-12-28,25,22,19,22,20,17,90,89,88,29.87,29.64,0,0,0,0.00
2013-12-30,34,30,28,30,27,25,90,88,82,29.55,29.50,0,0,0,0.00
2013-12-31,47,38,30,36,31,26,89,74,57,29.72,29.49,0,0,0,0.02
2014-1-1,31,28,25,29,25,22,91,90,88,29.83,29.72,0,0,0,0.00
2014-1-2,46,33,28,35,29,26,91,85,61,29.74,29.17,0,0,0,0.02